Meteo pe oră la Bolshie Pleyki

Astăzi, 6 Mai, Joi

Timp Temperatura Precipitaţii Vânt Presiune Umiditate
00:00 +9°C° 1.1 mm 1 m/s 735 mmHg 96%
01:00 +7°C° 1.1 mm 2 m/s 735 mmHg 97%
02:00 +7°C° 0 mm 2 m/s 735 mmHg 97%
03:00 +7°C° 1.6 mm 2 m/s 734 mmHg 96%
04:00 +7°C° 1.6 mm 3 m/s 734 mmHg 95%
05:00 +6°C° 1.6 mm 4 m/s 734 mmHg 93%
06:00 +6°C° 0.7 mm 4 m/s 734 mmHg 90%
07:00 +6°C° 0.7 mm 4 m/s 734 mmHg 86%
08:00 +7°C° 0.7 mm 4 m/s 735 mmHg 82%
09:00 +7°C° 0.3 mm 5 m/s 735 mmHg 79%
10:00 +8°C° 0.3 mm 6 m/s 735 mmHg 76%
11:00 +8°C° 0.3 mm 7 m/s 735 mmHg 73%
12:00 +7°C° 0.3 mm 8 m/s 736 mmHg 75%
13:00 +6°C° 0.3 mm 8 m/s 737 mmHg 78%
14:00 +6°C° 0.3 mm 8 m/s 737 mmHg 80%
15:00 +5°C° 0.3 mm 8 m/s 738 mmHg 80%
16:00 +5°C° 0.3 mm 7 m/s 738 mmHg 79%
17:00 +5°C° 0.3 mm 7 m/s 738 mmHg 79%
18:00 +5°C° 0.1 mm 6 m/s 738 mmHg 81%
19:00 +5°C° 0.1 mm 5 m/s 739 mmHg 83%
20:00 +3°C° 0.1 mm 5 m/s 739 mmHg 85%
21:00 +2°C° 0 mm 5 m/s 739 mmHg 87%
22:00 +2°C° 0 mm 5 m/s 740 mmHg 88%
23:00 +2°C° 0 mm 5 m/s 740 mmHg 89%

Mâine, 7 Mai, Vineri

Timp Temperatura Precipitaţii Vânt Presiune Umiditate
00:00 +1°C° 0 mm 5 m/s 740 mmHg 88%
01:00 +1°C° 0 mm 5 m/s 740 mmHg 88%
02:00 +1°C° 0 mm 5 m/s 740 mmHg 87%
03:00 +1°C° 0.1 mm 5 m/s 740 mmHg 89%
04:00 +2°C° 0.1 mm 5 m/s 740 mmHg 91%
05:00 +2°C° 0.1 mm 5 m/s 740 mmHg 94%
06:00 +2°C° 0 mm 5 m/s 740 mmHg 88%
07:00 +3°C° 0 mm 5 m/s 741 mmHg 83%
08:00 +5°C° 0 mm 5 m/s 741 mmHg 77%
09:00 +6°C° 0 mm 5 m/s 741 mmHg 71%
10:00 +7°C° 0 mm 5 m/s 741 mmHg 64%
11:00 +8°C° 0 mm 4 m/s 741 mmHg 58%
12:00 +10°C° 0 mm 4 m/s 741 mmHg 55%
13:00 +11°C° 0 mm 4 m/s 741 mmHg 51%
14:00 +11°C° 0 mm 4 m/s 741 mmHg 48%
15:00 +10°C° 0.2 mm 3 m/s 740 mmHg 59%
16:00 +9°C° 0.2 mm 3 m/s 740 mmHg 70%
17:00 +8°C° 0.2 mm 2 m/s 740 mmHg 80%
18:00 +8°C° 1 mm 2 m/s 739 mmHg 86%
19:00 +7°C° 1 mm 2 m/s 739 mmHg 91%
20:00 +6°C° 1 mm 2 m/s 738 mmHg 97%
21:00 +6°C° 1.1 mm 2 m/s 738 mmHg 97%
22:00 +7°C° 1.1 mm 1 m/s 738 mmHg 97%
23:00 +7°C° 1.1 mm 1 m/s 737 mmHg 97%

Poimâine, 8 Mai, Sâmbătă

Timp Temperatura Precipitaţii Vânt Presiune Umiditate
00:00 +7°C° 0.5 mm 1 m/s 737 mmHg 97%
01:00 +6°C° 0.5 mm 2 m/s 737 mmHg 97%
02:00 +6°C° 0.5 mm 2 m/s 736 mmHg 97%
03:00 +4°C° 0.4 mm 3 m/s 736 mmHg 97%
04:00 +4°C° 0.4 mm 4 m/s 736 mmHg 97%
05:00 +4°C° 0.4 mm 4 m/s 736 mmHg 97%
06:00 +2°C° 1.6 mm 5 m/s 737 mmHg 97%
07:00 +2°C° 1.6 mm 6 m/s 737 mmHg 97%
08:00 +1°C° 1.6 mm 6 m/s 738 mmHg 97%
09:00 +2°C° 0.9 mm 6 m/s 738 mmHg 93%
10:00 +2°C° 0.9 mm 6 m/s 739 mmHg 90%
11:00 +3°C° 0.9 mm 6 m/s 740 mmHg 87%
12:00 +4°C° 0.2 mm 7 m/s 740 mmHg 82%
13:00 +4°C° 0.2 mm 8 m/s 741 mmHg 77%
14:00 +5°C° 0.2 mm 8 m/s 742 mmHg 72%
15:00 +6°C° 0.1 mm 8 m/s 742 mmHg 68%
16:00 +6°C° 0.1 mm 7 m/s 742 mmHg 64%
17:00 +7°C° 0.1 mm 6 m/s 743 mmHg 61%
18:00 +5°C° 0 mm 6 m/s 743 mmHg 64%
19:00 +5°C° 0 mm 5 m/s 744 mmHg 67%
20:00 +3°C° 0 mm 4 m/s 745 mmHg 70%
21:00 +1°C° 0 mm 4 m/s 745 mmHg 72%
22:00 +1°C° 0 mm 4 m/s 746 mmHg 75%
23:00 0°C° 0 mm 4 m/s 747 mmHg 77%

9 Mai, Duminică

Timp Temperatura Precipitaţii Vânt Presiune Umiditate
00:00 0°C° 0 mm 3 m/s 747 mmHg 79%
01:00 0°C° 0 mm 3 m/s 748 mmHg 81%
02:00 -1°C° 0 mm 3 m/s 748 mmHg 83%
03:00 -1°C° 0 mm 3 m/s 749 mmHg 82%
04:00 -1°C° 0 mm 2 m/s 749 mmHg 80%
05:00 -1°C° 0 mm 2 m/s 750 mmHg 79%
06:00 +1°C° 0 mm 3 m/s 750 mmHg 73%
07:00 +3°C° 0 mm 3 m/s 751 mmHg 67%
08:00 +5°C° 0 mm 3 m/s 751 mmHg 60%
09:00 +8°C° 0 mm 3 m/s 751 mmHg 57%
10:00 +8°C° 0 mm 4 m/s 752 mmHg 54%
11:00 +10°C° 0 mm 4 m/s 752 mmHg 50%
12:00 +11°C° 0 mm 4 m/s 752 mmHg 49%
13:00 +12°C° 0 mm 4 m/s 752 mmHg 48%
14:00 +12°C° 0 mm 5 m/s 752 mmHg 46%
15:00 +12°C° 0 mm 4 m/s 752 mmHg 49%
16:00 +12°C° 0 mm 4 m/s 752 mmHg 52%
17:00 +12°C° 0 mm 4 m/s 752 mmHg 55%
18:00 +10°C° 0 mm 4 m/s 752 mmHg 61%
19:00 +9°C° 0 mm 3 m/s 752 mmHg 68%
20:00 +7°C° 0 mm 3 m/s 753 mmHg 75%
21:00 +7°C° 0 mm 3 m/s 753 mmHg 74%
22:00 +7°C° 0 mm 3 m/s 753 mmHg 74%
23:00 +6°C° 0 mm 4 m/s 753 mmHg 73%

10 Mai, Luni

Timp Temperatura Precipitaţii Vânt Presiune Umiditate
00:00 +6°C° 0 mm 4 m/s 753 mmHg 71%
01:00 +7°C° 0 mm 4 m/s 753 mmHg 70%
02:00 +7°C° 0 mm 4 m/s 753 mmHg 68%
03:00 +7°C° 0 mm 4 m/s 753 mmHg 70%
04:00 +7°C° 0 mm 4 m/s 753 mmHg 72%
05:00 +6°C° 0 mm 4 m/s 754 mmHg 74%
06:00 +7°C° 0 mm 4 m/s 754 mmHg 72%
07:00 +9°C° 0 mm 5 m/s 754 mmHg 70%
08:00 +10°C° 0 mm 5 m/s 754 mmHg 68%
09:00 +12°C° 0 mm 5 m/s 754 mmHg 64%
10:00 +14°C° 0 mm 6 m/s 754 mmHg 60%
11:00 +16°C° 0 mm 6 m/s 755 mmHg 56%
12:00 +16°C° 0 mm 6 m/s 754 mmHg 55%
13:00 +17°C° 0 mm 6 m/s 754 mmHg 53%
14:00 +19°C° 0 mm 6 m/s 754 mmHg 52%
15:00 +19°C° 0 mm 6 m/s 754 mmHg 55%
16:00 +17°C° 0 mm 5 m/s 754 mmHg 58%
17:00 +17°C° 0 mm 5 m/s 754 mmHg 61%
18:00 +15°C° 0 mm 5 m/s 754 mmHg 67%
19:00 +14°C° 0 mm 4 m/s 754 mmHg 73%
20:00 +12°C° 0 mm 3 m/s 754 mmHg 78%
21:00 +11°C° 0 mm 3 m/s 754 mmHg 81%
22:00 +10°C° 0 mm 3 m/s 754 mmHg 83%
23:00 +9°C° 0 mm 3 m/s 755 mmHg 85%

11 Mai, Marţi

Timp Temperatura Precipitaţii Vânt Presiune Umiditate
00:00 +9°C° 0 mm 3 m/s 754 mmHg 83%
01:00 +8°C° 0 mm 4 m/s 754 mmHg 81%
02:00 +8°C° 0 mm 4 m/s 754 mmHg 79%
03:00 +8°C° 0 mm 4 m/s 754 mmHg 80%
04:00 +7°C° 0 mm 4 m/s 754 mmHg 80%
05:00 +8°C° 0 mm 3 m/s 754 mmHg 81%
06:00 +10°C° 0 mm 4 m/s 754 mmHg 75%
07:00 +10°C° 0 mm 5 m/s 754 mmHg 70%
08:00 +13°C° 0 mm 5 m/s 754 mmHg 64%
09:00 +14°C° 0 mm 5 m/s 754 mmHg 60%
10:00 +15°C° 0 mm 5 m/s 754 mmHg 56%
11:00 +17°C° 0 mm 5 m/s 754 mmHg 51%
12:00 +17°C° 0 mm 5 m/s 754 mmHg 49%
13:00 +19°C° 0 mm 6 m/s 754 mmHg 46%
14:00 +20°C° 0 mm 6 m/s 753 mmHg 44%
15:00 +20°C° 0 mm 5 m/s 753 mmHg 47%
16:00 +19°C° 0 mm 5 m/s 753 mmHg 51%
17:00 +19°C° 0 mm 5 m/s 752 mmHg 54%
18:00 +17°C° 0 mm 4 m/s 752 mmHg 62%
19:00 +15°C° 0 mm 4 m/s 752 mmHg 71%
20:00 +13°C° 0 mm 4 m/s 752 mmHg 79%
21:00 +12°C° 0 mm 3 m/s 752 mmHg 83%
22:00 +12°C° 0 mm 3 m/s 752 mmHg 86%
23:00 +11°C° 0 mm 3 m/s 752 mmHg 90%
Arată mai mult

Formular de consimțământ

Meteoprog și furnizorii noștri de servicii pot stoca și accesa date personale, precum cookies, identificatori de dispozitiv sau alte tehnologii similare pe dispozitivul dumneavoastră și procesa astfel de date pentru a personaliza conținutul și reclamele, dar și pentru a oferi caracteristici de social media și pentru a analiza traficul.

  • Stocarea și/sau accesarea informațiilor pe dispozitivul dumneavoastră

    Cookies, identificatori de dispozitiv sau alte informații pot fi stocate sau accesate pe dispozitiv în scopurile indicate mai sus.

  • Reclame și conținut personalizat, evaluarea reclamelor și a conținutului, informații despre audiențe și dezvoltarea produselor

    Reclamele și conținutul pot fi personalizate pe baza unui profil. Pot fi adăugate date suplimentare pentru a personaliza mai bine reclamele și conținutul. Performanța reclamelor și conținutului poate fi măsurată. Pot fi obținute informații despre utilizatorii care au văzut reclamele și conținutul. Aceste date pot fi utilizate pentru a dezvolta sau îmbunătăți experiența utilizatorilor, sistemele și software-ul.

Dând clic pe ‘Sunt de acord’, permiteți utilizarea cookie-urilor menționate, a identificatorilor de dispozitiv, balizelor web sau altor tehnologii similare. Setările pot fi modificate din browser-ul dispozitivului dumneavoastră.

În anumite scopuri, interesele legitime pot prima asupra consimțământului. Puteți citi mai multe informații în acest sens în Politica privind Confidențialitatea Datelor și Cookie.